KAL1326 RKPC-RKSS

Flight info

Callsign KAL1326
Flight time 0h 49m
Altitude 23000
Route KAMIT Y722 OLMEN
Aircraft A21N/M-SDE2E3FGHIRWXY/LB1

Departure

Time 2025-09-05 13:41
Airport Jeju International Airport (RKPC)

Arrival

Time 2025-09-05 14:31
Airport Gimpo International Airport (RKSS)
Time Latitude Longitude Altitude Speed Heading
2025-09-05 13:19 33.50711 126.49187 143 ft 0 kts 150°
2025-09-05 13:26 33.50715 126.49185 140 ft 2 kts 150°
2025-09-05 13:27 33.50747 126.49161 140 ft 3 kts 130°
2025-09-05 13:28 33.50780 126.49133 140 ft 3 kts 208°
2025-09-05 13:28 33.50800 126.49160 140 ft 2 kts 238°
2025-09-05 13:29 33.50808 126.49175 140 ft 1 kts 237°
2025-09-05 13:31 33.50798 126.49157 140 ft 4 kts 237°
2025-09-05 13:32 33.50699 126.48965 140 ft 14 kts 239°
2025-09-05 13:32 33.50579 126.48729 140 ft 18 kts 238°
2025-09-05 13:33 33.50592 126.48532 140 ft 10 kts 329°
2025-09-05 13:33 33.50587 126.48391 140 ft 11 kts 240°
2025-09-05 13:34 33.50494 126.48209 140 ft 16 kts 237°
2025-09-05 13:34 33.50428 126.48084 140 ft 19 kts 238°
2025-09-05 13:34 33.50288 126.47812 140 ft 15 kts 238°
2025-09-05 13:35 33.50157 126.47558 140 ft 21 kts 239°
2025-09-05 13:36 33.49953 126.47158 140 ft 17 kts 238°
2025-09-05 13:36 33.49883 126.46958 140 ft 4 kts 295°
2025-09-05 13:37 33.49905 126.46929 140 ft 0 kts 327°
2025-09-05 13:39 33.49929 126.46911 140 ft 8 kts 329°
2025-09-05 13:40 33.50138 126.47139 139 ft 44 kts 58°
2025-09-05 13:40 33.50997 126.48817 145 ft 184 kts 60°
2025-09-05 13:41 33.52435 126.51509 1559 ft 207 kts 48°
2025-09-05 13:41 33.54905 126.54232 2703 ft 266 kts 43°
2025-09-05 13:42 33.57654 126.57249 5093 ft 273 kts 43°
2025-09-05 13:42 33.59075 126.58810 6178 ft 280 kts 43°
2025-09-05 13:42 33.61999 126.62051 7680 ft 291 kts 43°
2025-09-05 13:43 33.65001 126.65416 8979 ft 300 kts 43°
2025-09-05 13:44 33.69194 126.70021 10416 ft 321 kts 36°
2025-09-05 13:44 33.73553 126.71850 10876 ft 352 kts
2025-09-05 13:45 33.78654 126.72279 11342 ft 381 kts
2025-09-05 13:45 33.84005 126.72789 12345 ft 389 kts
2025-09-05 13:46 33.89412 126.73350 13340 ft 395 kts
2025-09-05 13:46 33.92168 126.73635 13795 ft 398 kts
2025-09-05 13:46 33.97726 126.74217 14598 ft 403 kts
2025-09-05 13:47 34.03341 126.74810 15404 ft 407 kts
2025-09-05 13:48 34.11883 126.75715 16566 ft 414 kts
2025-09-05 13:48 34.17661 126.76332 17336 ft 418 kts
2025-09-05 13:48 34.20569 126.76642 17720 ft 420 kts
2025-09-05 13:49 34.26390 126.77259 18426 ft 425 kts
2025-09-05 13:49 34.32318 126.77894 19035 ft 430 kts
2025-09-05 13:50 34.38307 126.78533 19650 ft 435 kts
2025-09-05 13:50 34.44375 126.79179 20255 ft 439 kts
2025-09-05 13:51 34.50512 126.79834 20865 ft 444 kts
2025-09-05 13:52 34.59805 126.80819 21792 ft 452 kts
2025-09-05 13:52 34.66116 126.81487 22435 ft 457 kts
2025-09-05 13:53 34.72487 126.82167 22969 ft 458 kts
2025-09-05 13:53 34.78703 126.82832 22980 ft 440 kts
2025-09-05 13:54 34.84759 126.83486 22973 ft 439 kts
2025-09-05 13:54 34.87809 126.83821 22982 ft 439 kts
2025-09-05 13:54 34.93901 126.84485 22986 ft 439 kts
2025-09-05 13:55 34.99998 126.85149 22973 ft 439 kts
2025-09-05 13:56 35.09133 126.86135 22973 ft 439 kts
2025-09-05 13:56 35.15224 126.86795 22972 ft 439 kts
2025-09-05 13:57 35.21307 126.87457 22974 ft 439 kts
2025-09-05 13:57 35.27395 126.88121 22974 ft 439 kts
2025-09-05 13:57 35.30397 126.88447 22974 ft 439 kts
2025-09-05 13:58 35.36496 126.89109 22973 ft 439 kts
2025-09-05 13:58 35.42579 126.89773 22971 ft 438 kts
2025-09-05 13:59 35.48625 126.90433 22962 ft 438 kts
2025-09-05 14:00 35.57743 126.91429 22967 ft 438 kts
2025-09-05 14:00 35.63817 126.92096 22966 ft 438 kts
2025-09-05 14:01 35.69901 126.92762 22962 ft 439 kts
2025-09-05 14:01 35.75990 126.93430 22958 ft 439 kts
2025-09-05 14:02 35.82072 126.94096 22955 ft 439 kts
2025-09-05 14:02 35.85117 126.94434 22956 ft 439 kts
2025-09-05 14:02 35.91169 126.95101 22954 ft 439 kts
2025-09-05 14:03 35.97263 126.95776 22954 ft 439 kts
2025-09-05 14:04 36.06401 126.96790 22950 ft 439 kts
2025-09-05 14:04 36.12489 126.97465 22955 ft 439 kts
2025-09-05 14:04 36.15533 126.97801 22958 ft 439 kts
2025-09-05 14:05 36.24605 126.98812 22956 ft 438 kts
2025-09-05 14:05 36.27642 126.99149 22953 ft 438 kts
2025-09-05 14:06 36.33655 126.99819 22556 ft 433 kts
2025-09-05 14:06 36.39717 127.00344 22059 ft 436 kts 357°
2025-09-05 14:07 36.45704 127.00138 21236 ft 429 kts 356°
2025-09-05 14:08 36.54608 126.99800 19611 ft 424 kts 356°
2025-09-05 14:08 36.60429 126.99591 18488 ft 411 kts 356°
2025-09-05 14:09 36.66038 126.99390 17383 ft 396 kts 355°
2025-09-05 14:09 36.71485 126.99461 16351 ft 390 kts
2025-09-05 14:09 36.74068 127.00378 15891 ft 392 kts 22°
2025-09-05 14:10 36.78519 127.04458 15330 ft 402 kts 42°
2025-09-05 14:10 36.82575 127.09266 14928 ft 401 kts 42°
2025-09-05 14:11 36.86661 127.13997 14913 ft 401 kts 42°
2025-09-05 14:12 36.92813 127.21092 14932 ft 401 kts 41°
2025-09-05 14:12 36.97664 127.24225 14833 ft 394 kts
2025-09-05 14:13 37.02920 127.23401 14431 ft 383 kts 333°
2025-09-05 14:13 37.07423 127.19961 13993 ft 377 kts 323°
2025-09-05 14:14 37.11816 127.16368 13494 ft 375 kts 324°
2025-09-05 14:14 37.14007 127.14607 13069 ft 372 kts 324°
2025-09-05 14:14 37.18324 127.11146 12116 ft 369 kts 325°
2025-09-05 14:15 37.22576 127.07760 11199 ft 349 kts 325°
2025-09-05 14:16 37.28367 127.03196 10423 ft 305 kts 325°
2025-09-05 14:16 37.31862 127.00412 10065 ft 291 kts 324°
2025-09-05 14:17 37.35282 126.97680 9369 ft 292 kts 324°
2025-09-05 14:17 37.38701 126.94940 8603 ft 293 kts 324°
2025-09-05 14:17 37.40415 126.93540 8226 ft 293 kts 320°
2025-09-05 14:18 37.42625 126.89482 7974 ft 282 kts 290°
2025-09-05 14:18 37.43510 126.86858 7977 ft 282 kts 290°
2025-09-05 14:19 37.45018 126.82473 7982 ft 282 kts 290°
2025-09-05 14:20 37.47104 126.75593 7155 ft 279 kts 286°
2025-09-05 14:20 37.48341 126.71144 6888 ft 260 kts 286°
2025-09-05 14:21 37.49112 126.66928 6665 ft 240 kts 274°
2025-09-05 14:21 37.49511 126.62771 6064 ft 238 kts 274°
2025-09-05 14:21 37.49747 126.60708 5752 ft 238 kts 279°
2025-09-05 14:22 37.51606 126.57257 5076 ft 246 kts 312°
2025-09-05 14:22 37.54056 126.54286 4425 ft 245 kts 312°
2025-09-05 14:23 37.56866 126.52034 3962 ft 239 kts 356°
2025-09-05 14:24 37.60738 126.55294 3989 ft 232 kts 48°
2025-09-05 14:24 37.62924 126.58211 3553 ft 227 kts 46°
2025-09-05 14:25 37.64991 126.60874 2984 ft 205 kts 46°
2025-09-05 14:25 37.66942 126.63480 2765 ft 204 kts 59°
2025-09-05 14:25 37.67233 126.65165 2745 ft 198 kts 103°
2025-09-05 14:26 37.65475 126.67363 2349 ft 175 kts 157°
2025-09-05 14:26 37.63624 126.69000 1913 ft 153 kts 141°
2025-09-05 14:27 37.62176 126.70819 1527 ft 147 kts 139°
2025-09-05 14:28 37.60263 126.73231 1022 ft 145 kts 138°
2025-09-05 14:28 37.58853 126.75009 648 ft 143 kts 136°
2025-09-05 14:29 37.57450 126.76776 257 ft 142 kts 136°
2025-09-05 14:29 37.56751 126.77650 74 ft 141 kts 136°
2025-09-05 14:29 37.55687 126.78990 64 ft 56 kts 135°
2025-09-05 14:30 37.55453 126.79412 65 ft 12 kts 105°
2025-09-05 14:30 37.55451 126.79653 66 ft 7 kts 59°
2025-09-05 14:32 37.55480 126.79708 64 ft 10 kts 56°
2025-09-05 14:32 37.55464 126.79918 67 ft 16 kts 110°
2025-09-05 14:33 37.55477 126.80189 61 ft 15 kts 46°
2025-09-05 14:33 37.55638 126.80281 66 ft 14 kts 317°
2025-09-05 14:33 37.55700 126.80254 67 ft 7 kts 40°
2025-09-05 14:34 37.55749 126.80317 72 ft 0 kts 44°
2025-09-05 14:34 37.55755 126.80325 72 ft 1 kts 44°
2025-09-05 14:35 37.55757 126.80327 72 ft 0 kts 44°